Location: Unspecified
(0.0000°N, 0.0000°E)
Time: 01:30:50
(UTC+00:00)

Courier 1B Rocket - Pass Details

Date: 28 November 2019
Orbit: 920 x 1202 km, 28.2° (Epoch: 10 December)

Event Time Altitude Azimuth Distance (km) Brightness Sun altitude
Rises 20:26:42 0° 281° (WNW) 4,006 8.8 -36.5°
Reaches altitude 10° 20:29:43 10° 273° (W) 3,076 8.2 -37.2°
Maximum altitude 20:36:42 37° 208° (SSW) 1,757 6.5 -38.7°
Enters shadow 20:38:31 33° 181° (S) 1,882 6.5 -39.1°
